False Pass, AK

12:31 AM AKST on February 07, 2016 (GMT -0900)
False Pass

Weather History for PAKF - July, 2013

Change the Weather History Date:

Monday, July 8, 2013

  Actual Average (PACD) Record (PACD)
Temperature  
Mean Temperature 47 °F 50 °F  
Max Temperature 48 °F 55 °F 71 °F (1971)
Min Temperature 42 °F 46 °F 33 °F (1982)
Degree Days  
Heating Degree Days 18 15  
Month to date heating degree days 123  
Since 1 June heating degree days 685  
Since 1 July heating degree days 123  
Cooling Degree Days 0    
Month to date cooling degree days  
Year to date cooling degree days  
Since 1 June cooling degree days  
Moisture  
Dew Point 44 °F    
Average Humidity 93    
Maximum Humidity 100    
Minimum Humidity 83    
Precipitation  
Precipitation 0.02 in 0.07 in 0.97 in (1962)
Month to date precipitation 0.60  
Year to date precipitation 17.18  
Snow  
Snow 0.00 in 0.00 in 0.00 in (2015)
Month to date snowfall 0.0  
Since 1 June snowfall 0.0  
Since 1 July snowfall 0.0  
Snow Depth -    
Sea Level Pressure  
Sea Level Pressure 30.19 in    
Wind  
Wind Speed 5 mph (ESE)    
Max Wind Speed 12 mph    
Max Gust Speed -    
Visibility 10 miles    
Events Rain    
T = Trace of Precipitation, MM = Missing Value Source: NWS Daily Summary

Daily Weather History Graph

Daily Weather History Graph

Search for Another Location

Airport or City:

Trip Planner

Search our weather history database for the weather conditions in past years. The results will help you decide how hot, cold, wet, or windy it might be!

Date:

Astronomy

Jul. 08, 2013 Rise Set
Actual Time 5:27 AM HDT 10:29 PM HDT
Civil Twilight 4:32 AM HDT 11:23 PM HDT
Nautical Twilight 2:48 AM HDT 1:05 AM HDT
Astronomical Twilight Sun does not rise Sun does not rise
Moon 6:27 AM HDT (7/8) 10:14 PM HDT (7/8)
Length of Visible Light 18h 50m
Length of Day
17h 01m
New Moon, 0% of the Moon is Illuminated
Jul 8
New Moon
Jul 15
First Quarter
Jul 22
Full
Jul 29
Last Quarter
Aug 6
New

Hourly Weather History & Observations

Time (HDT) Temp. Windchill Dew Point Humidity Pressure Visibility Wind Dir Wind Speed Gust Speed Precip Events Conditions
12:01 AM 44.1 °F 42.5 °F 42.1 °F 93% 30.34 in 10.0 mi Variable 3.5 mph - N/A   Clear
12:19 AM 44.6 °F 43.1 °F 42.8 °F 93% 30.06 in 10.0 mi NNE 3.5 mph - N/A   Mostly Cloudy
12:37 AM 42.8 °F 39.3 °F 42.8 °F 100% 30.06 in 10.0 mi SSW 5.8 mph - N/A   Mostly Cloudy
1:01 AM 44.1 °F - 42.1 °F 93% 30.35 in 10.0 mi Calm Calm - N/A   Partly Cloudy
1:44 AM 42.8 °F - 42.8 °F 100% 30.06 in 10.0 mi Calm Calm - N/A   Mostly Cloudy
2:01 AM 42.8 °F - 42.8 °F 100% 30.06 in 10.0 mi Calm Calm - N/A   Mostly Cloudy
2:59 AM 42.8 °F - 42.8 °F 100% 30.06 in 10.0 mi North - - N/A   Overcast
3:01 AM 43.0 °F 41.3 °F 42.1 °F 97% 30.35 in 10.0 mi SW 3.5 mph - N/A   Overcast
4:01 AM 43.0 °F 41.3 °F 42.1 °F 97% 30.34 in 10.0 mi SSW 3.5 mph - N/A   Overcast
4:16 AM 42.8 °F 41.1 °F 42.8 °F 100% 30.05 in 10.0 mi SW 3.5 mph - N/A   Overcast
4:26 AM 42.8 °F 41.1 °F 41.0 °F 93% 30.05 in 10.0 mi South 3.5 mph - N/A   Overcast
5:01 AM 42.1 °F 40.2 °F 41.0 °F 96% 30.32 in 10.0 mi West 3.5 mph - N/A   Overcast
5:10 AM 42.8 °F - 41.0 °F 93% 30.05 in 10.0 mi Calm Calm - N/A   Overcast
5:19 AM 42.8 °F 40.1 °F 41.0 °F 93% 30.04 in 10.0 mi SSW 4.6 mph - N/A   Overcast
5:30 AM 42.8 °F 39.3 °F 41.0 °F 93% 30.05 in 10.0 mi SSW 5.8 mph - N/A   Overcast
5:37 AM 42.8 °F 41.1 °F 41.0 °F 93% 30.05 in 10.0 mi SSW 3.5 mph - N/A   Overcast
6:01 AM 43.0 °F 41.3 °F 42.1 °F 97% 30.33 in 10.0 mi SW 3.5 mph - N/A   Overcast
6:30 AM 42.8 °F - 42.8 °F 100% 30.04 in 10.0 mi Calm Calm - N/A   Overcast
7:01 AM 44.6 °F 41.4 °F 42.8 °F 93% 30.03 in 10.0 mi ESE 5.8 mph - N/A   Scattered Clouds
8:01 AM 46.0 °F 41.9 °F 43.0 °F 89% 30.32 in 10.0 mi East 8.1 mph - 0.00 in   Overcast
8:56 AM 44.6 °F 39.7 °F 44.6 °F 100% 30.03 in 10.0 mi East 9.2 mph - N/A   Mostly Cloudy
9:01 AM 46.0 °F 41.4 °F 44.1 °F 93% 30.32 in 10.0 mi East 9.2 mph - N/A   Overcast
9:15 AM 46.4 °F 41.5 °F 44.6 °F 93% 30.03 in 10.0 mi East 10.4 mph - N/A   Overcast
9:29 AM 46.4 °F 42.4 °F 44.6 °F 93% 30.03 in 10.0 mi East 8.1 mph - N/A   Overcast
9:40 AM 46.4 °F 41.5 °F 44.6 °F 93% 30.03 in 10.0 mi ESE 10.4 mph - N/A   Overcast
9:52 AM 46.4 °F 41.5 °F 44.6 °F 93% 30.03 in 10.0 mi East 10.4 mph - N/A   Mostly Cloudy
10:01 AM 46.9 °F - 44.1 °F 90% 30.31 in 10.0 mi ESE 9.2 mph - 0.00 in Rain Light Rain
11:01 AM 48.0 °F - 45.0 °F 89% 30.30 in 10.0 mi East 9.2 mph - 0.00 in Rain Light Rain
12:01 PM 51.1 °F - 46.0 °F 83% 30.29 in 10.0 mi East 9.2 mph - 0.00 in   Scattered Clouds
1:01 PM 50.0 °F - 46.0 °F 86% 30.30 in 10.0 mi East 10.4 mph - N/A   Scattered Clouds
2:01 PM 52.0 °F - 46.9 °F 83% 30.30 in 10.0 mi East 11.5 mph - N/A   Partly Cloudy
3:01 PM 52.0 °F - 46.9 °F 83% 30.30 in 10.0 mi East 11.5 mph - N/A   Clear
4:01 PM 51.1 °F - 46.0 °F 83% 30.31 in 10.0 mi East 11.5 mph - N/A   Clear
5:01 PM 51.1 °F - 46.0 °F 83% 30.31 in 10.0 mi East 9.2 mph - N/A   Overcast
6:01 PM 50.0 °F - 46.9 °F 89% 30.33 in 10.0 mi East 5.8 mph - 0.00 in Rain Light Rain
7:01 PM 50.0 °F - 46.9 °F 89% 30.34 in 9.0 mi ENE 8.1 mph - 0.01 in Rain Light Rain
8:01 PM 50.0 °F - 46.9 °F 89% 30.34 in 10.0 mi East 3.5 mph - 0.01 in Rain Light Rain
9:01 PM 48.9 °F - 46.9 °F 93% 30.34 in 10.0 mi Calm Calm - 0.00 in Rain Light Rain
9:48 PM 48.2 °F - 46.4 °F 93% 30.07 in 10.0 mi East 3.5 mph - 0.00 in Rain Light Rain
10:01 PM 48.9 °F - 46.9 °F 93% 30.35 in 10.0 mi Variable 4.6 mph - 0.00 in Rain Light Rain
10:35 PM 48.2 °F - 46.4 °F 93% 30.07 in 10.0 mi ENE 3.5 mph - 0.00 in   Mostly Cloudy
11:01 PM 50.0 °F - 46.9 °F 89% 30.36 in 10.0 mi ENE 5.8 mph - 0.00 in   Partly Cloudy